KA4JMC Weather Reports


Display with metric or nautical units.
time (UTC)temp
F
wind
direction
speed
MPH
gust
MPH
rain 1hr
in
rain 24hr
in
rain mn
in
humidity
%
barometer
mb
20260902173024 93 215 3.0 2.0 0.00 0.00 0.00 1014.2
20260902172523 93 221 2.0 4.0 0.00 0.00 0.00 1014.2
20260902172023 93 224 4.0 0.0 0.00 0.00 0.00 1014.2
20260902171525 93 151 4.0 3.0 0.00 0.00 0.00 1014.2
20260902171030 92 185 5.0 0.0 0.00 0.00 0.00 1014.2
20260902170523 92 203 0.0 5.0 0.00 0.00 0.00 1014.2
20260902170104 92 227 3.0 0.0 0.00 0.00 0.00 1014.2
20260902165522 92 227 3.0 3.0 0.00 0.00 0.00 1014.2
20260902165031 92 234 3.0 3.0 0.00 0.00 0.00 1014.2
20260902164523 92 238 2.0 0.0 0.00 0.00 0.00 1014.2
20260902164023 91 192 0.0 2.0 0.00 0.00 0.00 1014.2
20260902163526 91 205 3.0 0.0 0.00 0.00 0.00 1014.2
20260902163030 91 228 0.0 3.0 0.00 0.00 0.00 1014.2
20260902162523 91 242 0.0 0.0 0.00 0.00 0.00 1014.2
20260902162025 90 238 2.0 2.0 0.00 0.00 0.00 1014.2
20260902161523 90 184 4.0 3.0 0.00 0.00 0.00 1014.2
20260902161023 90 182 0.0 0.0 0.00 0.00 0.00 1014.2
20260902160523 90 206 0.0 0.0 0.00 0.00 0.00 1015.2
20260902160045 89 207 3.0 0.0 0.00 0.00 0.00 1015.2
20260902155522 89 245 0.0 4.0 0.00 0.00 0.00 1015.2
20260902155023 88 211 0.0 0.0 0.00 0.00 0.00 1015.2
20260902154523 88 221 0.0 2.0 0.00 0.00 0.00 1015.2
20260902154023 88 214 0.0 4.0 0.00 0.00 0.00 1015.2
20260902153523 88 217 0.0 0.0 0.00 0.00 0.00 1014.2
20260902153024 88 194 0.0 4.0 0.00 0.00 0.00 1014.2
20260902152543 87 181 0.0 0.0 0.00 0.00 0.00 1014.2
20260902152022 87 217 3.0 3.0 0.00 0.00 0.00 1014.2
20260902151522 86 247 3.0 4.0 0.00 0.00 0.00 1014.2
20260902151022 85 220 3.0 0.0 0.00 0.00 0.00 1014.2
20260902150522 84 177 0.0 3.0 0.00 0.00 0.00 1015.2
20260902150023 84 296 0.0 0.0 0.00 0.00 0.00 1015.2
20260902145523 83 231 0.0 4.0 0.00 0.00 0.00 1015.2
20260902145023 83 200 0.0 0.0 0.00 0.00 0.00 1015.2
20260902144522 82 208 3.0 0.0 0.00 0.00 0.00 1015.2
20260902144022 82 255 3.0 4.0 0.00 0.00 0.00 1015.2
20260902143522 82 216 0.0 0.0 0.00 0.00 0.00 1015.2
20260902143022 82 253 0.0 0.0 0.00 0.00 0.00 1015.2
20260902142543 81 221 0.0 0.0 0.00 0.00 0.00 1015.2
20260902142022 81 205 0.0 0.0 0.00 0.00 0.00 1015.2
20260902141523 80 218 0.0 0.0 0.00 0.00 0.00 1015.2
20260902141048 79 236 0.0 0.0 0.00 0.00 0.00 1015.2
20260902140523 79 188 0.0 0.0 0.00 0.00 0.00 1015.2
20260902140032 79 288 0.0 0.0 0.00 0.00 0.00 1015.2
20260902135531 80 288 0.0 0.0 0.00 0.00 0.00 1015.2
20260902135043 80 327 0.0 0.0 0.00 0.00 0.00 1015.2
20260902134523 80 336 0.0 0.0 0.00 0.00 0.00 1015.2
20260902134035 80 290 0.0 0.0 0.00 0.00 0.00 1015.2
20260902133544 80 248 0.0 0.0 0.00 0.00 0.00 1015.2
20260902133029 79 345 0.0 3.0 0.00 0.00 0.00 1015.2
20260902132523 78 223 3.0 0.0 0.00 0.00 0.00 1015.2
20260902132027 77 340 0.0 3.0 0.00 0.00 0.00 1016.2
20260902131523 77 328 0.0 0.0 0.00 0.00 0.00 1016.2
20260902131047 77 221 0.0 0.0 0.00 0.00 0.00 1016.2
20260902130523 77 357 0.0 4.0 0.00 0.00 0.00 1015.2
20260902130045 77 219 4.0 0.0 0.00 0.00 0.00 1015.2
20260902125522 76 353 4.0 3.0 0.00 0.00 0.00 1015.2
20260902125022 76 213 0.0 0.0 0.00 0.00 0.00 1015.2
20260902124523 76 175 0.0 0.0 0.00 0.00 0.00 1015.2
20260902124023 75 229 0.0 3.0 0.00 0.00 0.00 1015.2
20260902123523 75 216 0.0 0.0 0.00 0.00 0.00 1015.2
20260902123023 75 203 0.0 0.0 0.00 0.00 0.00 1015.2
20260902122523 75 187 0.0 0.0 0.00 0.00 0.00 1015.2
20260902122033 74 184 0.0 0.0 0.00 0.00 0.00 1015.2
20260902121522 74 210 0.0 0.0 0.00 0.00 0.00 1015.2
20260902121031 74 238 0.0 4.0 0.00 0.00 0.00 1015.2
20260902120544 74 187 0.0 0.0 0.00 0.00 0.00 1014.2
20260902120029 74 181 0.0 0.0 0.00 0.00 0.00 1014.2
20260902115523 74 230 0.0 0.0 0.00 0.00 0.00 1014.2
20260902115023 74 225 0.0 0.0 0.00 0.00 0.00 1014.2
20260902114522 74 201 0.0 3.0 0.00 0.00 0.00 1014.2
20260902114023 74 204 0.0 0.0 0.00 0.00 0.00 1014.2
20260902113522 74 218 0.0 0.0 0.00 0.00 0.00 1014.2
20260902113023 74 203 0.0 0.0 0.00 0.00 0.00 1014.2
20260902112523 74 209 0.0 0.0 0.00 0.00 0.00 1014.2
20260902112044 74 164 0.0 2.0 0.00 0.00 0.00 1014.2
20260902111523 74 187 2.0 0.0 0.00 0.00 0.00 1014.2
20260902111044 74 190 0.0 0.0 0.00 0.00 0.00 1014.2
20260902110524 74 214 0.0 0.0 0.00 0.00 0.00 1014.2
20260902110045 74 191 0.0 0.0 0.00 0.00 0.00 1014.2
20260902105522 74 184 0.0 0.0 0.00 0.00 0.00 1014.2
20260902105023 74 259 0.0 0.0 0.00 0.00 0.00 1014.2
20260902104523 74 194 0.0 0.0 0.00 0.00 0.00 1014.2
20260902104027 74 223 0.0 0.0 0.00 0.00 0.00 1014.2
20260902103523 74 223 0.0 0.0 0.00 0.00 0.00 1014.2
20260902103025 74 181 0.0 0.0 0.00 0.00 0.00 1014.2
20260902102543 74 205 0.0 0.0 0.00 0.00 0.00 1014.2
20260902102023 74 186 0.0 0.0 0.00 0.00 0.00 1015.2
20260902101523 74 191 0.0 0.0 0.00 0.00 0.00 1015.2
20260902101022 74 168 0.0 0.0 0.00 0.00 0.00 1015.2
20260902100522 74 176 0.0 3.0 0.00 0.00 0.00 1015.2
20260902100023 74 196 0.0 0.0 0.00 0.00 0.00 1015.2
20260902095543 74 212 0.0 0.0 0.00 0.00 0.00 1015.2
20260902095024 74 211 0.0 0.0 0.00 0.00 0.00 1015.2
20260902094523 74 177 0.0 0.0 0.00 0.00 0.00 1015.2
20260902094025 74 184 0.0 0.0 0.00 0.00 0.00 1015.2
20260902093523 74 184 0.0 0.0 0.00 0.00 0.00 1014.2
20260902093033 74 190 0.0 0.0 0.00 0.00 0.00 1014.2
20260902092543 74 165 0.0 0.0 0.00 0.00 0.00 1014.2
20260902092022 74 189 0.0 0.0 0.00 0.00 0.00 1014.2
20260902091523 74 189 0.0 0.0 0.00 0.00 0.00 1014.2
20260902091023 74 189 0.0 0.0 0.00 0.00 0.00 1014.2
20260902090522 74 196 0.0 0.0 0.00 0.00 0.00 1014.2
20260902090055 74 185 0.0 0.0 0.00 0.00 0.00 1014.2
20260902085523 74 185 0.0 0.0 0.00 0.00 0.00 1014.2
20260902085023 74 237 0.0 0.0 0.00 0.00 0.00 1014.2
20260902084523 75 237 0.0 0.0 0.00 0.00 0.00 1014.2
20260902084022 75 237 0.0 0.0 0.00 0.00 0.00 1014.2
20260902083522 75 170 0.0 0.0 0.00 0.00 0.00 1014.2
20260902083023 75 212 0.0 0.0 0.00 0.00 0.00 1014.2
20260902082522 75 207 0.0 0.0 0.00 0.00 0.00 1014.2
20260902082023 75 169 0.0 0.0 0.00 0.00 0.00 1014.2
20260902081523 75 169 0.0 0.0 0.00 0.00 0.00 1014.2
20260902081022 75 178 0.0 0.0 0.00 0.00 0.00 1014.2
20260902080522 75 172 0.0 0.0 0.00 0.00 0.00 1014.2
20260902080025 75 211 0.0 0.0 0.00 0.00 0.00 1014.2
20260902075523 75 222 0.0 0.0 0.00 0.00 0.00 1014.2
20260902075022 75 242 0.0 0.0 0.00 0.00 0.00 1014.2
20260902074522 75 193 0.0 4.0 0.00 0.00 0.00 1014.2
20260902074043 76 183 0.0 0.0 0.00 0.00 0.00 1014.2
20260902073523 76 182 0.0 2.0 0.00 0.00 0.00 1014.2
20260902073043 76 169 0.0 0.0 0.00 0.00 0.00 1014.2
20260902072522 76 202 0.0 0.0 0.00 0.00 0.00 1014.2
20260902072023 76 187 0.0 0.0 0.00 0.00 0.00 1014.2
20260902071522 76 182 2.0 0.0 0.00 0.00 0.00 1014.2
20260902071028 76 207 0.0 0.0 0.00 0.00 0.00 1014.2
20260902070524 76 173 0.0 3.0 0.00 0.00 0.00 1014.2
20260902070048 76 186 0.0 0.0 0.00 0.00 0.00 1014.2
20260902065544 76 169 0.0 0.0 0.00 0.00 0.00 1014.2
20260902065023 76 189 0.0 0.0 0.00 0.00 0.00 1014.2
20260902064522 76 177 0.0 0.0 0.00 0.00 0.00 1014.2
20260902064028 76 177 0.0 0.0 0.00 0.00 0.00 1014.2
20260902063525 76 176 0.0 0.0 0.00 0.00 0.00 1014.2
20260902063022 76 213 0.0 0.0 0.00 0.00 0.00 1014.2
20260902062525 76 186 0.0 0.0 0.00 0.00 0.00 1014.2
20260902062031 76 182 0.0 0.0 0.00 0.00 0.00 1014.2
20260902061522 76 237 0.0 0.0 0.00 0.00 0.00 1014.2
20260902061024 77 210 0.0 0.0 0.00 0.00 0.00 1014.2
20260902060523 77 183 0.0 0.0 0.00 0.00 0.00 1014.2
20260902060044 77 198 0.0 0.0 0.00 0.00 0.00 1014.2
20260902055523 77 208 0.0 0.0 0.00 0.00 0.00 1014.2
20260902055022 77 180 0.0 0.0 0.00 0.00 0.00 1014.2
20260902054522 77 163 0.0 0.0 0.00 0.00 0.00 1014.2
20260902054023 77 169 0.0 0.0 0.00 0.00 0.00 1014.2
20260902053530 77 206 0.0 0.0 0.00 0.00 0.00 1014.2
20260902053035 77 168 0.0 0.0 0.00 0.00 0.00 1014.2
20260902052522 77 198 0.0 0.0 0.00 0.00 0.00 1014.2
20260902052022 77 190 0.0 0.0 0.00 0.00 0.00 1014.2
20260902051523 77 193 0.0 0.0 0.00 0.00 0.00 1014.2
20260902051044 77 197 0.0 0.0 0.00 0.00 0.00 1014.2
20260902050523 78 185 0.0 0.0 0.00 0.00 0.00 1014.2
20260902050050 78 192 0.0 0.0 0.00 0.00 0.00 1014.2
20260902045523 78 195 0.0 0.0 0.00 0.00 0.00 1014.2
20260902045043 78 199 0.0 0.0 0.00 0.00 0.00 1014.2
20260902044543 78 194 0.0 0.0 0.00 0.00 0.00 1014.2
20260902044023 78 210 0.0 0.0 0.00 0.00 0.00 1014.2
20260902043523 78 176 0.0 3.0 0.00 0.00 0.00 1014.2
20260902043032 79 222 0.0 0.0 0.00 0.00 0.00 1014.2
20260902042522 79 200 0.0 4.0 0.00 0.00 0.00 1014.2
20260902042024 79 207 2.0 0.0 0.00 0.00 0.00 1014.2
20260902041523 79 180 0.0 0.0 0.00 0.00 0.00 1014.2
20260902041023 79 208 3.0 4.0 0.00 0.00 0.00 1014.2
20260902040523 79 200 0.0 3.0 0.00 0.00 0.00 1014.2
20260902040031 79 178 0.0 0.0 0.00 0.00 0.00 1014.2
20260902035522 79 254 0.0 3.0 0.00 0.00 0.00 1014.2
20260902035023 79 220 0.0 0.0 0.00 0.00 0.00 1014.2
20260902034522 79 193 0.0 0.0 0.00 0.00 0.00 1014.2
20260902034022 79 213 2.0 0.0 0.00 0.00 0.00 1014.2
20260902033522 79 185 0.0 0.0 0.00 0.00 0.00 1014.2
20260902033039 79 168 0.0 0.0 0.00 0.00 0.00 1014.2
20260902032530 79 187 0.0 4.0 0.00 0.00 0.00 1014.2
20260902032023 79 189 0.0 4.0 0.00 0.00 0.00 1014.2
20260902031528 79 166 0.0 3.0 0.00 0.00 0.00 1014.2
20260902031045 79 218 0.0 0.0 0.00 0.00 0.00 1014.2
20260902030527 79 183 0.0 0.0 0.00 0.00 0.00 1015.2
20260902030026 79 168 0.0 0.0 0.00 0.00 0.00 1015.2
20260902025525 79 177 0.0 0.0 0.00 0.00 0.00 1015.2
20260902025023 79 174 0.0 0.0 0.00 0.00 0.00 1014.2
20260902024523 79 189 0.0 0.0 0.00 0.00 0.00 1014.2
20260902024028 79 177 0.0 0.0 0.00 0.00 0.00 1014.2
20260902023522 79 258 0.0 0.0 0.00 0.00 0.00 1014.2
20260902023036 79 186 0.0 0.0 0.00 0.00 0.00 1014.2
20260902022534 79 186 0.0 0.0 0.00 0.00 0.00 1014.2
20260902022025 79 186 0.0 0.0 0.00 0.00 0.00 1014.2
20260902021527 80 186 0.0 0.0 0.00 0.00 0.00 1014.2
20260902021022 80 186 0.0 0.0 0.00 0.00 0.00 1014.2
20260902020522 80 186 0.0 0.0 0.00 0.00 0.00 1014.2
20260902020035 80 186 0.0 0.0 0.00 0.00 0.00 1014.2
20260902015528 80 186 0.0 0.0 0.00 0.00 0.00 1014.2
20260902015023 80 186 0.0 0.0 0.00 0.00 0.00 1014.2
20260902014522 81 186 0.0 0.0 0.00 0.00 0.00 1014.2
20260902014022 81 225 0.0 0.0 0.00 0.00 0.00 1014.2
20260902013523 81 176 0.0 0.0 0.00 0.00 0.00 1014.2
20260902013024 81 176 0.0 0.0 0.00 0.00 0.00 1014.2
20260902012524 81 176 0.0 0.0 0.00 0.00 0.00 1014.2
20260902012022 81 160 0.0 0.0 0.00 0.00 0.00 1014.2
20260902011522 81 191 0.0 0.0 0.00 0.00 0.00 1014.2
20260902011024 81 191 0.0 0.0 0.00 0.00 0.00 1014.2
20260902010544 82 191 0.0 0.0 0.00 0.00 0.00 1014.2
20260902010023 82 191 0.0 0.0 0.00 0.00 0.00 1014.2
20260902005544 82 191 0.0 0.0 0.00 0.00 0.00 1014.2
20260902005023 82 191 0.0 0.0 0.00 0.00 0.00 1013.2
20260902004523 82 191 0.0 0.0 0.00 0.00 0.00 1013.2
20260902004023 83 191 0.0 0.0 0.00 0.00 0.00 1013.2
20260902003522 83 191 0.0 0.0 0.00 0.00 0.00 1013.2
20260902003023 83 191 0.0 0.0 0.00 0.00 0.00 1013.2
20260902002522 84 243 0.0 0.0 0.00 0.00 0.00 1013.2
20260902002022 84 243 0.0 0.0 0.00 0.00 0.00 1013.2
20260902001544 84 243 0.0 0.0 0.00 0.00 0.00 1013.2
20260902001024 85 247 0.0 0.0 0.00 0.00 0.00 1013.2
20260902000531 85 181 0.0 0.0 0.00 0.00 0.00 1013.2
20260902000032 85 181 0.0 0.0 0.00 0.00 0.00 1013.2
20260901235523 85 181 0.0 0.0 0.00 0.00 0.00 1013.2
20260901235044 86 201 0.0 0.0 0.00 0.00 0.00 1013.2
20260901234523 86 201 0.0 0.0 0.00 0.00 0.00 1013.2
20260901234024 86 176 0.0 3.0 0.00 0.00 0.00 1013.2
20260901233526 87 178 0.0 0.0 0.00 0.00 0.00 1014.2
20260901233054 87 176 0.0 0.0 0.00 0.00 0.00 1014.2
20260901232525 87 167 0.0 0.0 0.00 0.00 0.00 1014.2
20260901232024 87 171 0.0 0.0 0.00 0.00 0.00 1014.2
20260901231523 87 175 2.0 0.0 0.00 0.00 0.00 1014.2
20260901231022 87 182 0.0 0.0 0.00 0.00 0.00 1014.2
20260901230522 87 177 0.0 3.0 0.00 0.00 0.00 1014.2
20260901230022 87 201 0.0 0.0 0.00 0.00 0.00 1014.2
20260901225522 87 218 2.0 4.0 0.00 0.00 0.00 1014.2
20260901225023 88 227 0.0 4.0 0.00 0.00 0.00 1014.2
20260901224531 88 162 0.0 0.0 0.00 0.00 0.00 1014.2
20260901224022 88 167 0.0 3.0 0.00 0.00 0.00 1014.2
20260901223527 88 169 3.0 0.0 0.00 0.00 0.00 1014.2
20260901223023 88 198 0.0 0.0 0.00 0.00 0.00 1014.2
20260901222527 88 172 0.0 3.0 0.00 0.00 0.00 1014.2
20260901222029 88 190 0.0 0.0 0.00 0.00 0.00 1014.2
20260901221522 88 235 0.0 0.0 0.00 0.00 0.00 1014.2
20260901221022 89 185 3.0 3.0 0.00 0.00 0.00 1014.2
20260901220523 89 223 0.0 0.0 0.00 0.00 0.00 1014.2
20260901220028 89 208 0.0 3.0 0.00 0.00 0.00 1014.2
20260901215523 89 223 0.0 3.0 0.00 0.00 0.00 1014.2
20260901215045 89 185 0.0 2.0 0.00 0.00 0.00 1014.2
20260901214522 89 204 0.0 3.0 0.00 0.00 0.00 1014.2
20260901214043 89 222 0.0 3.0 0.00 0.00 0.00 1014.2
20260901213523 89 237 0.0 4.0 0.00 0.00 0.00 1014.2
20260901213023 89 205 0.0 0.0 0.00 0.00 0.00 1014.2
20260901212523 90 184 0.0 3.0 0.00 0.00 0.00 1014.2
20260901212023 90 186 0.0 0.0 0.00 0.00 0.00 1014.2
20260901211523 90 195 0.0 4.0 0.00 0.00 0.00 1014.2
20260901211030 90 154 0.0 0.0 0.00 0.00 0.00 1014.2
20260901210522 90 208 4.0 3.0 0.00 0.00 0.00 1013.2
20260901210023 90 180 2.0 4.0 0.00 0.00 0.00 1013.2
20260901205544 90 267 0.0 0.0 0.00 0.00 0.00 1013.2
20260901205023 90 290 0.0 4.0 0.00 0.00 0.00 1014.2
20260901204522 90 206 0.0 0.0 0.00 0.00 0.00 1014.2
20260901204022 90 230 0.0 3.0 0.00 0.00 0.00 1014.2
20260901203523 90 255 0.0 4.0 0.00 0.00 0.00 1014.2
20260901203025 90 198 0.0 4.0 0.00 0.00 0.00 1014.2
20260901202525 90 240 2.0 0.0 0.00 0.00 0.00 1014.2
20260901202023 90 244 4.0 2.0 0.00 0.00 0.00 1014.2
20260901201529 90 244 3.0 3.0 0.00 0.00 0.00 1014.2
20260901201026 90 202 0.0 4.0 0.00 0.00 0.00 1014.2
20260901200548 90 243 4.0 6.0 0.00 0.00 0.00 1014.2
20260901200033 90 213 2.0 3.0 0.00 0.00 0.00 1014.2
20260901195524 90 228 0.0 5.0 0.00 0.00 0.00 1014.2
20260901195043 90 226 0.0 4.0 0.00 0.00 0.00 1014.2
20260901194523 90 182 0.0 2.0 0.00 0.00 0.00 1014.2
20260901194022 90 206 3.0 0.0 0.00 0.00 0.00 1014.2
20260901193523 90 211 3.0 5.0 0.00 0.00 0.00 1014.2
20260901193027 90 187 3.0 3.0 0.00 0.00 0.00 1014.2
20260901192533 91 205 0.0 0.0 0.00 0.00 0.00 1014.2
20260901192043 91 213 0.0 0.0 0.00 0.00 0.00 1014.2
20260901191552 91 221 0.0 0.0 0.00 0.00 0.00 1014.2
20260901191023 91 248 0.0 0.0 0.00 0.00 0.00 1014.2
20260901190522 91 214 0.0 0.0 0.00 0.00 0.00 1014.2
20260901190044 91 0 0.0 0.0 0.00 0.00 0.00 1014.2
20260901185527 90 182 0.0 0.0 0.00 0.00 0.00 1014.2
20260901185030 90 243 0.0 3.0 0.00 0.00 0.00 1015.2
20260901184523 90 211 3.0 2.0 0.00 0.00 0.00 1015.2
20260901184023 90 207 3.0 0.0 0.00 0.00 0.00 1015.2
20260901183522 90 200 0.0 3.0 0.00 0.00 0.00 1015.2
20260901183046 90 189 0.0 0.0 0.00 0.00 0.00 1015.2
20260901182543 90 179 5.0 8.0 0.00 0.00 0.00 1015.2
20260901182023 90 199 0.0 0.0 0.00 0.00 0.00 1015.2
20260901181522 90 245 3.0 0.0 0.00 0.00 0.00 1015.2
20260901181024 90 235 0.0 3.0 0.00 0.00 0.00 1015.2
20260901180523 89 245 0.0 2.0 0.00 0.00 0.00 1015.2
20260901180023 89 216 0.0 5.0 0.00 0.00 0.00 1015.2
20260901175523 89 235 0.0 0.0 0.00 0.00 0.00 1015.2
20260901175023 89 221 0.0 0.0 0.00 0.00 0.00 1015.2
20260901174523 89 245 2.0 3.0 0.00 0.00 0.00 1015.2
20260901174024 88 198 0.0 0.0 0.00 0.00 0.00 1015.2
20260901173523 87 238 0.0 4.0 0.00 0.00 0.00 1015.2